[[{"header":{"parameterUnit":"m.s-1","parameterCategory":2,"la1":30.2991,"la2":30.254,"lo1":-89.0895,"lo2":-89.0444,"dy":0.0017,"dx":0.0017,"nx":28,"ny":28,"refTime":"2025-04-27T03:00:00:Z","depth":"0","parameterNumber":2,"parameterNumberName":"U-component_of_CURRENTS"},"data":[0,0,0,0,0,0,0,0,0,0,0,0,0,0,0,0,0,0,0,0,0,0,0,0,0,0,0,0,0,0,0,0,0,0,0,0,0,0,0,0,0,0,0,0,0,0,0,0,0,0,0,0,0,0,0,0,0,0,0.3429,0.3429,0,0.3417,0.3416,0.3416,0.3396,0.3396,0.3396,0.3396,0.3366,0.3365,0.3365,0,0,0,0,0,0,0,0,0,0,0,0,0,0.3436,0.3436,0.3429,0.3429,0.3429,0.3417,0.3416,0.3416,0.3396,0.3396,0.3396,0.3395,0.3366,0.3365,0.3365,0,0,0,0,0,0,0,0,0,0,0,0,0,0.3427,0.3436,0.3429,0.3419,0.3418,0.3417,0.3416,0.3416,0.3396,0.3396,0.3396,0.3395,0.3366,0.3366,0.3365,0.3365,0,0,0.3362,0.3361,0,0,0,0,0,0,0,0,0.3428,0.3427,0.342,0.342,0.3419,0.3409,0.3408,0.3399,0.3396,0.3402,0.3396,0.3395,0.338,0.3378,0.3374,0.3363,0.3362,0.3362,0.3361,0.3361,0.3361,0,0,0,0,0,0,0,0.3429,0.3427,0.3422,0.342,0.3419,0.3416,0.3414,0.3406,0.3391,0.3402,0.3401,0.3403,0.3379,0.3375,0.3373,0.3361,0.3362,0.3361,0.336,0.336,0.338,0.3381,0,0,0,0,0,0,0.3434,0.3428,0.3422,0.3422,0.3425,0.3416,0.3414,0.3411,0.3392,0.3389,0.3403,0.3402,0.3377,0.3374,0.3372,0.3396,0.3361,0.336,0.3359,0.3379,0.338,0.3382,0,0,0,0,0,0,0.3434,0.3434,0.3423,0.3426,0.3425,0.3416,0.3413,0.3411,0.3412,0.3393,0.339,0.3407,0.3376,0.3373,0.3375,0.3394,0.3359,0.3359,0.3378,0.338,0.3381,0.3429,0,0,0,0,0,0,0.3435,0.3434,0.3435,0.3427,0.3425,0.3433,0.3414,0.3411,0.3414,0.3413,0.3395,0.3392,0.3376,0.3377,0.3374,0.3392,0.3358,0.3376,0.3379,0.3381,0.3426,0.3432,0.3437,0,0,0,0,0,0.3435,0.3435,0.3435,0.3434,0.3426,0.3433,0.3433,0.3424,0.3415,0.3422,0.341,0.3393,0.3388,0.3377,0.3373,0.3392,0.3375,0.3378,0.338,0.3423,0.3431,0.3437,0,0,0,0,0,0,0.3438,0.3434,0.3432,0.3431,0.3439,0.3431,0.3433,0.343,0.3426,0.3424,0.3402,0.3398,0.3412,0.3395,0.3383,0.3405,0.3381,0.3383,0.3415,0.3421,0.3427,0.3447,0.3357,0,0,0,0,0,0.3441,0.344,0.3442,0.3443,0.3446,0.3442,0.3444,0.3443,0.3439,0.3436,0.3423,0.3415,0.3419,0.3414,0.3414,0.3418,0.3434,0.3431,0.3436,0.3441,0.3457,0.3501,0.3512,0.339,0.339,0.339,0,0,0.3443,0.3441,0.3441,0.3445,0.3445,0.3459,0.3442,0.3451,0.3462,0.3434,0.3439,0.3436,0.3427,0.3439,0.3443,0.3425,0.3484,0.3444,0.3448,0.3462,0.3505,0.3517,0.3527,0.3391,0.3391,0.3391,0,0,0.345,0.3446,0.345,0.3461,0.3471,0.3473,0.3481,0.3481,0.3478,0.3486,0.3477,0.3489,0.3475,0.3483,0.3483,0.352,0.3518,0.3515,0.3552,0.3594,0.3605,0.3615,0.3651,0.3664,0.3511,0.3511,0.3511,0,0.3456,0.3455,0.3455,0.3469,0.3475,0.3483,0.3495,0.3504,0.3506,0.3514,0.3493,0.3513,0.3501,0.3536,0.3547,0.3534,0.3555,0.3524,0.3603,0.3612,0.3621,0.3657,0.367,0.3513,0.3513,0.3513,0.3513,0,0.3468,0.3473,0.3479,0.3496,0.3508,0.352,0.3534,0.3549,0.3545,0.3557,0.3586,0.3577,0.3592,0.359,0.3575,0.3636,0.363,0.361,0.3587,0.3637,0.367,0.3683,0.3517,0.3516,0.3515,0.3515,0,0,0.3462,0.3482,0.3483,0.3494,0.3518,0.353,0.3558,0.3585,0.362,0.3622,0.3661,0.3667,0.3676,0.3679,0.3671,0.37,0.3776,0.3683,0.3684,0.3722,0.3874,0.3832,0.3841,0.377,0.3773,0.3775,0.3873,0,0.3469,0.3486,0.3497,0.3524,0.3532,0.3555,0.3587,0.3622,0.3644,0.3692,0.3704,0.3742,0.3707,0.3724,0.3751,0.3781,0.3812,0.3751,0.3819,0.3821,0.3779,0.3856,0.3721,0.3794,0.3885,0.3887,0.3889,0,0.3468,0.348,0.3492,0.3531,0.354,0.3565,0.3617,0.3654,0.3731,0.3755,0.3801,0.3819,0.3879,0.3833,0.3912,0.3877,0.3884,0.3894,0.3897,0.3852,0.3802,0.3758,0.3814,0.3698,0.3909,0.3907,0.3906,0,0.3438,0.3474,0.3476,0.3489,0.3541,0.3557,0.3597,0.3668,0.3711,0.3811,0.3857,0.3922,0.3967,0.3993,0.4008,0.3973,0.4093,0.4042,0.401,0.4007,0.3904,0.3887,0.3857,0.4099,0.4099,0.4099,0.4099,0,0.3422,0.343,0.3465,0.347,0.3501,0.3549,0.3601,0.3662,0.3757,0.3821,0.3895,0.3952,0.4012,0.4072,0.4064,0.4092,0.414,0.4046,0.404,0.3915,0.3899,0.3801,0.3744,0.4103,0.4102,0.4101,0.41,0,0.338,0.3398,0.3415,0.3465,0.348,0.3508,0.359,0.364,0.3748,0.3835,0.3872,0.4008,0.4099,0.4143,0.421,0.417,0.4074,0.418,0.403,0.4005,0.3837,0.3789,0.3651,0.3545,0.4165,0.4165,0.4164,0,0.3354,0.3355,0.3397,0.3405,0.3422,0.3468,0.3503,0.3615,0.3671,0.3848,0.3888,0.403,0.4104,0.4217,0.4192,0.4206,0.4062,0.4071,0.397,0.3837,0.3779,0.3624,0.3533,0.3856,0.3853,0.385,0.3849,0,0.3324,0.3338,0.3357,0.3362,0.3385,0.3404,0.3464,0.3508,0.3645,0.3722,0.3842,0.3929,0.4078,0.4061,0.4111,0.4084,0.3871,0.4024,0.3925,0.3579,0.3369,0.3261,0.3784,0.3828,0.383,0.3832,0.3833,0.3834,0.3313,0.3309,0.3327,0.3318,0.3333,0.3322,0.3297,0.3378,0.3438,0.3522,0.3704,0.3766,0.3889,0.3951,0.3911,0.3756,0.3729,0.3622,0.3592,0.3461,0.3292,0.3776,0.3784,0.3786,0.3787,0.3788,0.3789,0,0.3297,0.3285,0.3279,0.3246,0.3194,0.3228,0.3247,0.3195,0.3194,0.3338,0.3419,0.3501,0.3518,0.3566,0.3509,0.3358,0.3188,0.3237,0.2984,0.2931,0.3406,0.3326,0.3186,0.3186,0.3186,0.3186,0.3186,0.3186,0.3301,0.3266,0.3232,0.3106,0.3062,0.2939,0.2908,0.2866,0.2911,0.2919,0.2947,0.3073,0.3248,0.3251,0.3108,0.3025,0.2776,0.2635,0.2621,0.2959,0.2992,0.3022,0.2934,0.2713,0.2713,0.2025,0.202,0.2016]},{"header":{"parameterUnit":"m.s-1","parameterCategory":2,"la1":30.2991,"la2":30.254,"lo1":-89.0895,"lo2":-89.0444,"dy":0.0017,"dx":0.0017,"nx":28,"ny":28,"refTime":"2025-04-27T03:00:00:Z","depth":"0","parameterNumber":3,"parameterNumberName":"V-component_of_CURRENTS"},"data":[0,0,0,0,0,0,0,0,0,0,0,0,0,0,0,0,0,0,0,0,0,0,0,0,0,0,0,0,0,0,0,0,0,0,0,0,0,0,0,0,0,0,0,0,0,0,0,0,0,0,0,0,0,0,0,0,0,0,0.0577,0.0576,0,0.0522,0.0521,0.0521,0.048,0.048,0.048,0.048,0.04,0.0398,0.0396,0,0,0,0,0,0,0,0,0,0,0,0,0,0.0568,0.0569,0.0577,0.0576,0.0576,0.0522,0.0521,0.052,0.048,0.048,0.048,0.048,0.0401,0.0398,0.0396,0,0,0,0,0,0,0,0,0,0,0,0,0,0.0547,0.0569,0.0577,0.0551,0.0548,0.0523,0.0521,0.052,0.048,0.048,0.048,0.0479,0.0401,0.0399,0.0396,0.0382,0,0,0.0387,0.0385,0,0,0,0,0,0,0,0,0.0548,0.0547,0.0555,0.0553,0.055,0.051,0.0489,0.0473,0.048,0.0504,0.048,0.0479,0.0436,0.043,0.0418,0.0378,0.0375,0.0386,0.0384,0.0383,0.0382,0,0,0,0,0,0,0,0.055,0.0549,0.0553,0.0555,0.0551,0.0516,0.0513,0.0486,0.047,0.0502,0.0499,0.0497,0.0434,0.0421,0.0415,0.0374,0.0386,0.0384,0.0382,0.0381,0.0325,0.0325,0,0,0,0,0,0,0.0566,0.0551,0.0555,0.0551,0.0551,0.0516,0.0513,0.0521,0.047,0.0463,0.0497,0.0495,0.0426,0.0419,0.0412,0.0414,0.0383,0.038,0.0379,0.0325,0.0325,0.0325,0,0,0,0,0,0,0.0566,0.0567,0.0557,0.0551,0.0547,0.0518,0.0526,0.052,0.0511,0.0467,0.0459,0.0496,0.0425,0.0417,0.0398,0.041,0.0379,0.0376,0.0324,0.0325,0.0325,0.0404,0,0,0,0,0,0,0.0566,0.0568,0.0577,0.0552,0.0548,0.0554,0.0526,0.0519,0.0511,0.0508,0.0464,0.0456,0.0424,0.0403,0.0395,0.0405,0.0374,0.0324,0.0325,0.0325,0.0401,0.0407,0.0413,0,0,0,0,0,0.0566,0.0584,0.0578,0.0579,0.0564,0.0555,0.055,0.0525,0.0512,0.0515,0.0484,0.0457,0.04,0.0401,0.0392,0.0401,0.0324,0.0324,0.0325,0.0399,0.0406,0.0412,0,0,0,0,0,0,0.0581,0.0581,0.0574,0.0591,0.0579,0.0549,0.0548,0.0532,0.051,0.0508,0.0462,0.0453,0.0438,0.0409,0.041,0.0386,0.0357,0.0356,0.0416,0.0423,0.0428,0.0453,0.0372,0,0,0,0,0,0.0592,0.0607,0.0595,0.0607,0.0605,0.0578,0.057,0.0559,0.0536,0.0526,0.0493,0.046,0.0433,0.0421,0.039,0.038,0.0347,0.0379,0.0385,0.039,0.0403,0.0362,0.0365,0.0328,0.0328,0.0328,0,0,0.0599,0.0602,0.0609,0.0611,0.0598,0.061,0.0572,0.0572,0.058,0.0521,0.0516,0.0477,0.0433,0.0421,0.0412,0.04,0.0382,0.0391,0.0396,0.0406,0.0363,0.0366,0.037,0.0328,0.0328,0.0328,0,0,0.0625,0.0626,0.0649,0.0649,0.0645,0.0634,0.0639,0.0618,0.0606,0.0597,0.0556,0.053,0.0487,0.0461,0.0442,0.046,0.0412,0.0447,0.0499,0.0459,0.0462,0.0464,0.0427,0.0426,0.0452,0.0453,0.0453,0,0.0632,0.0668,0.0651,0.0674,0.0684,0.0652,0.068,0.0664,0.0639,0.0637,0.0608,0.0548,0.0508,0.0497,0.0501,0.0474,0.0444,0.0479,0.0467,0.0469,0.047,0.0431,0.0429,0.0456,0.0456,0.0456,0.0455,0,0.068,0.0707,0.072,0.0745,0.0749,0.0769,0.0754,0.075,0.0729,0.0714,0.0692,0.063,0.0599,0.0576,0.0544,0.0535,0.0508,0.0478,0.0455,0.0479,0.0436,0.0432,0.0462,0.0461,0.046,0.0459,0,0,0.0702,0.0749,0.0753,0.0785,0.0795,0.0807,0.0819,0.0828,0.085,0.0798,0.0811,0.0746,0.0711,0.0687,0.0635,0.0597,0.057,0.0549,0.0545,0.0522,0.0484,0.0468,0.0461,0.0538,0.0537,0.0537,0.0453,0,0.0747,0.0819,0.0823,0.0885,0.0923,0.0905,0.0926,0.0926,0.0913,0.0914,0.0841,0.0829,0.0755,0.0743,0.0693,0.0606,0.0563,0.0596,0.0457,0.0453,0.0443,0.0457,0.0486,0.0413,0.0448,0.0447,0.0447,0,0.0797,0.0844,0.0919,0.0978,0.0992,0.1021,0.106,0.1076,0.1064,0.1051,0.1016,0.0958,0.0898,0.0826,0.0688,0.0714,0.0611,0.0531,0.0525,0.0482,0.0429,0.0393,0.0403,0.0283,0.0439,0.044,0.044,0,0.0838,0.0909,0.0978,0.0998,0.1054,0.1083,0.1111,0.1123,0.1159,0.1142,0.1161,0.1067,0.1033,0.089,0.0721,0.0706,0.0563,0.0518,0.0403,0.04,0.0384,0.0381,0.0271,0.0417,0.0417,0.0417,0.0418,0,0.0894,0.0947,0.1009,0.105,0.1137,0.1149,0.1236,0.1243,0.1279,0.1336,0.1242,0.1259,0.1048,0.0936,0.0763,0.0579,0.0591,0.042,0.038,0.0412,0.0412,0.0274,0.0175,0.0414,0.0415,0.0415,0.0416,0,0.0931,0.0968,0.1055,0.1133,0.1161,0.1227,0.1328,0.1397,0.1411,0.1479,0.1478,0.1406,0.1266,0.1044,0.0817,0.0652,0.0383,0.039,0.0444,0.0413,0.0195,0.01,-0.0069,-0.0127,0.0254,0.0254,0.0253,0,0.096,0.101,0.1118,0.118,0.1223,0.1322,0.14,0.1456,0.1539,0.1575,0.1622,0.1512,0.1468,0.1136,0.0817,0.0514,0.0361,0.0335,0.0306,0.0196,0.006,0.0007,-0.0032,0.0311,0.031,0.031,0.031,0,0.102,0.1055,0.1131,0.1259,0.1355,0.1467,0.1585,0.167,0.1735,0.1802,0.1864,0.1831,0.1521,0.1242,0.0822,0.0603,0.0255,0.0322,0.0192,0.0086,0.0036,-0.0041,0.0351,0.0309,0.0309,0.0309,0.0309,0.0309,0.1063,0.1126,0.1225,0.1346,0.1456,0.1596,0.1702,0.1835,0.1974,0.2085,0.2051,0.2053,0.1643,0.1091,0.0775,0.0252,0.0228,0.0108,-0.0002,-0.0045,-0.0092,0.0303,0.0225,0.0225,0.0225,0.0225,0.0224,0,0.1118,0.1191,0.1306,0.145,0.1571,0.1622,0.1812,0.193,0.2103,0.2221,0.2286,0.2111,0.1615,0.1091,0.0366,0.001,-0.011,-0.0186,-0.0251,-0.0279,0.0065,0.008,-0.0011,-0.0011,-0.0011,-0.001,-0.001,-0.001,0.1152,0.1258,0.1315,0.1512,0.1614,0.1782,0.1891,0.2068,0.2206,0.2365,0.2396,0.2399,0.1992,0.072,-0.0093,-0.0282,-0.0507,-0.0578,-0.0699,-0.0461,-0.0441,-0.0422,-0.0427,-0.0623,-0.0624,-0.0951,-0.0955,-0.0958]}],[{"header":{"parameterUnit":"m.s-1","parameterCategory":2,"la1":30.2991,"la2":30.254,"lo1":-89.0895,"lo2":-89.0444,"dy":0.0017,"dx":0.0017,"nx":28,"ny":28,"refTime":"2025-04-27T03:00:00:Z","depth":"2","parameterNumber":2,"parameterNumberName":"U-component_of_CURRENTS"},"data":[0,0,0,0,0,0,0,0,0,0,0,0,0,0,0,0,0,0,0,0,0,0,0,0,0,0,0,0,0,0,0,0,0,0,0,0,0,0,0,0,0,0,0,0,0,0,0,0,0,0,0,0,0,0,0,0,0,0,0.2992,0.2992,0,0.3,0.3,0.3,0.2999,0.2999,0.2999,0.2999,0.2994,0.2994,0.2994,0,0,0,0,0,0,0,0,0,0,0,0,0,0.2979,0.2979,0.2992,0.2992,0.2993,0.3,0.3,0.3,0.2999,0.2999,0.2999,0.2999,0.2994,0.2994,0.2994,0,0,0,0,0,0,0,0,0,0,0,0,0,0.2984,0.2979,0.2992,0.2994,0.2995,0.3,0.3,0.3,0.2999,0.2999,0.2999,0.2999,0.2994,0.2994,0.2994,0.2991,0,0,0.2993,0.2993,0,0,0,0,0,0,0,0,0.2984,0.2984,0.2994,0.2994,0.2995,0.3,0.2994,0.2997,0.2999,0.2995,0.2999,0.2999,0.2996,0.2996,0.2995,0.2991,0.2991,0.2993,0.2993,0.2993,0.2993,0,0,0,0,0,0,0,0.2983,0.2984,0.2993,0.2994,0.2995,0.2997,0.2997,0.2995,0.2993,0.2995,0.2996,0.3,0.2996,0.2995,0.2994,0.2991,0.2993,0.2993,0.2993,0.2993,0.3033,0.3034,0,0,0,0,0,0,0.2986,0.2984,0.2993,0.2994,0.2992,0.2997,0.2997,0.2997,0.2994,0.2994,0.3,0.3,0.2995,0.2995,0.2994,0.3032,0.2993,0.2993,0.2992,0.3032,0.3033,0.3035,0,0,0,0,0,0,0.2986,0.2987,0.2993,0.2991,0.2992,0.2997,0.2997,0.2997,0.3007,0.2998,0.2997,0.3011,0.2995,0.2995,0.3007,0.3031,0.2992,0.2992,0.3031,0.3032,0.3034,0.3082,0,0,0,0,0,0,0.2985,0.2986,0.2991,0.2991,0.2992,0.3008,0.2997,0.2997,0.301,0.301,0.3007,0.3006,0.2995,0.3008,0.3007,0.3029,0.2992,0.3029,0.3031,0.3034,0.3079,0.3085,0.309,0,0,0,0,0,0.2985,0.2987,0.299,0.2992,0.2996,0.3009,0.301,0.3012,0.3011,0.302,0.302,0.3007,0.3022,0.3009,0.3007,0.303,0.3028,0.3031,0.3033,0.3076,0.3084,0.309,0,0,0,0,0,0,0.2983,0.2987,0.2991,0.2995,0.3009,0.301,0.3017,0.3021,0.3028,0.3031,0.3018,0.3017,0.3042,0.3029,0.3014,0.305,0.3025,0.3027,0.3058,0.3065,0.3071,0.3087,0.2992,0,0,0,0,0,0.2985,0.2989,0.2999,0.3004,0.3011,0.3018,0.3024,0.3031,0.3036,0.3039,0.3037,0.3039,0.3051,0.3052,0.3058,0.307,0.3081,0.3086,0.3092,0.3097,0.3111,0.315,0.3161,0.3044,0.3044,0.3044,0,0,0.2986,0.299,0.2992,0.3005,0.3012,0.3031,0.3021,0.3039,0.3057,0.3038,0.3058,0.3063,0.3061,0.3082,0.3091,0.3073,0.3137,0.3101,0.3105,0.3116,0.3154,0.3166,0.3176,0.3046,0.3045,0.3045,0,0,0.2991,0.2995,0.3002,0.3017,0.3038,0.3046,0.3057,0.307,0.3077,0.3097,0.3096,0.3118,0.3118,0.313,0.3134,0.3176,0.3173,0.3176,0.3212,0.325,0.326,0.3269,0.3299,0.331,0.3172,0.3172,0.3172,0,0.2995,0.3001,0.3008,0.3025,0.3036,0.3057,0.3073,0.3091,0.3108,0.3123,0.3111,0.3149,0.3145,0.3184,0.32,0.319,0.3209,0.3182,0.3258,0.3267,0.3275,0.3304,0.3316,0.3175,0.3174,0.3174,0.3174,0,0.3006,0.3018,0.3025,0.3051,0.3068,0.3087,0.3113,0.3137,0.3149,0.3168,0.3211,0.3212,0.3237,0.324,0.323,0.3291,0.3285,0.3266,0.324,0.329,0.3317,0.3328,0.3178,0.3178,0.3177,0.3176,0,0,0.2994,0.3025,0.3028,0.3045,0.3082,0.3098,0.3136,0.3175,0.3216,0.3235,0.328,0.3302,0.3317,0.3324,0.3323,0.335,0.3421,0.3336,0.3336,0.3366,0.3508,0.3448,0.3454,0.3417,0.3419,0.3421,0.3503,0,0.3,0.3023,0.3041,0.3077,0.309,0.3126,0.3164,0.321,0.3245,0.3301,0.3323,0.3372,0.3345,0.3369,0.3395,0.3426,0.3454,0.3401,0.3455,0.3457,0.3397,0.3466,0.3193,0.3239,0.3514,0.3516,0.3518,0,0.2999,0.3015,0.3037,0.3088,0.31,0.3131,0.3198,0.3242,0.3328,0.3361,0.3415,0.3442,0.3505,0.3467,0.3542,0.3511,0.3519,0.3528,0.3531,0.3467,0.3418,0.3233,0.3249,0.3537,0.3535,0.3534,0.3533,0,0.2967,0.3012,0.3026,0.3041,0.3105,0.313,0.3177,0.3259,0.3308,0.3416,0.3467,0.3535,0.3584,0.3609,0.3627,0.3598,0.3702,0.3659,0.3609,0.3604,0.3379,0.3351,0.371,0.371,0.371,0.371,0.371,0,0.2951,0.2967,0.3016,0.3025,0.3066,0.3123,0.3186,0.3252,0.3354,0.3423,0.3504,0.356,0.3625,0.368,0.3675,0.3688,0.3742,0.3639,0.3631,0.3388,0.3361,0.3619,0.3607,0.3713,0.3712,0.3712,0.3711,0,0.2907,0.2936,0.2962,0.3026,0.3047,0.3082,0.318,0.3232,0.3349,0.3441,0.3481,0.3612,0.3692,0.3737,0.3798,0.3752,0.3766,0.3749,0.3461,0.3418,0.3629,0.3619,0.371,0.3709,0.3708,0.3707,0.3706,0,0.2882,0.2889,0.2947,0.2961,0.2988,0.3047,0.3088,0.321,0.3268,0.3448,0.3485,0.362,0.3677,0.3766,0.3721,0.3721,0.377,0.3457,0.3346,0.3651,0.3634,0.3625,0.3617,0.3065,0.3059,0.3054,0.3051,0,0.2843,0.2866,0.2887,0.2909,0.2942,0.2978,0.3049,0.3089,0.3236,0.3313,0.3418,0.3491,0.3602,0.3489,0.3518,0.3467,0.3436,0.3359,0.3762,0.3112,0.3051,0.3032,0.3043,0.3007,0.3012,0.3015,0.3017,0.3019,0.2815,0.2811,0.2836,0.2845,0.2878,0.2883,0.2869,0.2952,0.301,0.3089,0.3244,0.3253,0.3306,0.3208,0.3105,0.3016,0.3245,0.3082,0.3094,0.3111,0.3027,0.2967,0.2892,0.2895,0.2898,0.2901,0.2904,0,0.2759,0.2757,0.2767,0.2755,0.273,0.2788,0.2814,0.2768,0.2764,0.2881,0.2939,0.2729,0.2685,0.2721,0.2527,0.2529,0.2465,0.2418,0.2304,0.2351,0.2393,0.2266,0.1933,0.1929,0.1926,0.1923,0,0,0.2732,0.2698,0.2682,0.2598,0.2592,0.2507,0.2487,0.2448,0.2475,0.2431,0.2409,0.2611,0.2687,0.2284,0.2234,0.2049,0.2178,0.1969,0.2761,0.2678,0.2715,0.2804,0.2668,0,0,0,0,0]},{"header":{"parameterUnit":"m.s-1","parameterCategory":2,"la1":30.2991,"la2":30.254,"lo1":-89.0895,"lo2":-89.0444,"dy":0.0017,"dx":0.0017,"nx":28,"ny":28,"refTime":"2025-04-27T03:00:00:Z","depth":"2","parameterNumber":3,"parameterNumberName":"V-component_of_CURRENTS"},"data":[0,0,0,0,0,0,0,0,0,0,0,0,0,0,0,0,0,0,0,0,0,0,0,0,0,0,0,0,0,0,0,0,0,0,0,0,0,0,0,0,0,0,0,0,0,0,0,0,0,0,0,0,0,0,0,0,0,0,0.0436,0.0436,0,0.0391,0.039,0.039,0.0358,0.0358,0.0358,0.0358,0.0288,0.0286,0.0285,0,0,0,0,0,0,0,0,0,0,0,0,0,0.0426,0.0427,0.0436,0.0436,0.0436,0.0391,0.039,0.0389,0.0358,0.0358,0.0358,0.0358,0.0289,0.0287,0.0284,0,0,0,0,0,0,0,0,0,0,0,0,0,0.0409,0.0427,0.0436,0.0416,0.0414,0.0391,0.039,0.0389,0.0358,0.0358,0.0358,0.0358,0.0289,0.0287,0.0284,0.0269,0,0,0.0276,0.0275,0,0,0,0,0,0,0,0,0.041,0.0409,0.042,0.0418,0.0415,0.0382,0.0361,0.0348,0.0358,0.0377,0.0358,0.0358,0.0319,0.0313,0.0303,0.0266,0.0263,0.0276,0.0274,0.0273,0.0272,0,0,0,0,0,0,0,0.0412,0.0411,0.0416,0.0419,0.0417,0.0385,0.0383,0.0358,0.0347,0.0376,0.0374,0.0372,0.0317,0.0305,0.0301,0.0262,0.0276,0.0273,0.0272,0.027,0.0215,0.0215,0,0,0,0,0,0,0.0425,0.0412,0.0418,0.0415,0.0415,0.0386,0.0384,0.0391,0.0348,0.0342,0.0372,0.0371,0.031,0.0304,0.0298,0.0297,0.0273,0.027,0.0269,0.0214,0.0215,0.0215,0,0,0,0,0,0,0.0425,0.0426,0.042,0.0413,0.0411,0.0387,0.0395,0.039,0.0384,0.0346,0.0339,0.0372,0.031,0.0302,0.0285,0.0293,0.0269,0.0266,0.0214,0.0214,0.0215,0.0283,0,0,0,0,0,0,0.0425,0.0427,0.0436,0.0415,0.0412,0.0416,0.0395,0.039,0.0384,0.0381,0.0343,0.0336,0.0309,0.0289,0.0282,0.0289,0.0264,0.0214,0.0214,0.0215,0.028,0.0285,0.0289,0,0,0,0,0,0.0425,0.044,0.0437,0.0437,0.0426,0.0417,0.0413,0.0393,0.0384,0.0386,0.0361,0.0338,0.0285,0.0287,0.0279,0.0286,0.0214,0.0214,0.0215,0.0278,0.0284,0.0289,0,0,0,0,0,0,0.0434,0.0438,0.0433,0.0447,0.0438,0.0413,0.0412,0.04,0.0381,0.038,0.0341,0.0333,0.0319,0.0292,0.0295,0.0269,0.0245,0.0244,0.0296,0.0301,0.0306,0.0328,0.0262,0,0,0,0,0,0.0443,0.0458,0.0449,0.0459,0.0458,0.0436,0.043,0.0422,0.0403,0.0394,0.0367,0.0337,0.0313,0.0301,0.0274,0.0262,0.0231,0.0259,0.0264,0.0268,0.0279,0.0238,0.024,0.0216,0.0216,0.0216,0,0,0.0448,0.0452,0.0459,0.0462,0.0452,0.0462,0.0432,0.0432,0.0439,0.0389,0.0386,0.0353,0.0313,0.03,0.0291,0.028,0.0257,0.0268,0.0272,0.0281,0.0239,0.0241,0.0243,0.0216,0.0216,0.0216,0,0,0.0467,0.047,0.049,0.0491,0.049,0.0481,0.0487,0.047,0.0461,0.0454,0.0419,0.0395,0.0357,0.0332,0.0314,0.0327,0.0283,0.0315,0.0357,0.0317,0.0319,0.0321,0.0284,0.0281,0.0318,0.0318,0.0318,0,0.0471,0.0503,0.0492,0.0511,0.0521,0.0497,0.0521,0.0507,0.0487,0.0485,0.0463,0.0409,0.0373,0.0359,0.0363,0.0339,0.0309,0.0342,0.0325,0.0325,0.0326,0.0287,0.0283,0.0321,0.0321,0.032,0.032,0,0.0509,0.0534,0.0544,0.0569,0.0573,0.059,0.058,0.0578,0.0563,0.055,0.053,0.0475,0.0447,0.0426,0.0398,0.0385,0.0361,0.0336,0.0315,0.0332,0.029,0.0285,0.0326,0.0325,0.0324,0.0323,0,0,0.0523,0.0567,0.0571,0.06,0.0612,0.0623,0.0633,0.0641,0.066,0.0617,0.0626,0.0569,0.054,0.0517,0.0471,0.0433,0.0405,0.0393,0.0389,0.0365,0.0319,0.0298,0.0289,0.0376,0.0376,0.0375,0.0289,0,0.056,0.0622,0.0628,0.0682,0.0716,0.0704,0.0722,0.0722,0.0712,0.0712,0.0647,0.0638,0.0574,0.0565,0.0516,0.0438,0.0395,0.0431,0.0299,0.0295,0.0281,0.0284,0.0302,0.0226,0.0284,0.0283,0.0282,0,0.06,0.0643,0.0708,0.0761,0.0773,0.0799,0.0834,0.0848,0.0836,0.0826,0.0794,0.0745,0.0689,0.063,0.0499,0.0525,0.0433,0.036,0.0355,0.031,0.0265,0.0217,0.0215,0.0273,0.0274,0.0275,0.0275,0,0.0634,0.0697,0.0758,0.0776,0.0826,0.0851,0.0877,0.0888,0.0921,0.0905,0.0921,0.0834,0.0803,0.0674,0.0521,0.0512,0.0371,0.0336,0.0225,0.0222,0.02,0.0196,0.024,0.0241,0.0241,0.0241,0.0241,0,0.0681,0.0727,0.0784,0.082,0.0897,0.0908,0.0986,0.0991,0.1022,0.1073,0.099,0.1001,0.0813,0.0708,0.0554,0.0379,0.0391,0.0237,0.02,0.0223,0.0223,0.0234,0.0234,0.0238,0.0238,0.0239,0.024,0,0.0713,0.0746,0.0823,0.0892,0.0919,0.0977,0.1072,0.113,0.1142,0.1202,0.1202,0.1129,0.0996,0.0795,0.0586,0.0436,0.0261,0.0193,0.0234,0.0204,0.0129,0.0134,0.0064,0.0063,0.0062,0.0061,0.006,0,0.0737,0.0781,0.088,0.0937,0.0976,0.1067,0.1139,0.1187,0.126,0.1285,0.1323,0.1217,0.1162,0.0848,0.0564,0.0287,0.0252,0.0116,0.0098,0.0141,0.0112,0.0119,0.0125,0.0089,0.0089,0.0088,0.0088,0,0.0786,0.0819,0.0886,0.1007,0.1095,0.1201,0.1307,0.138,0.1436,0.1488,0.1526,0.1482,0.1189,0.0917,0.0534,0.0344,0.0161,0.0099,0.013,0.0137,0.0159,0.0133,0.0139,0.0084,0.0084,0.0085,0.0085,0.0085,0.0821,0.0877,0.0967,0.1082,0.1187,0.1316,0.1411,0.1525,0.1641,0.1718,0.1675,0.1617,0.1298,0.0821,0.0485,0.013,0.015,0.002,0.0024,0.0027,0.0052,0.0071,-0.0016,-0.0017,-0.0017,-0.0017,-0.0017,0,0.0864,0.0931,0.1037,0.1171,0.1288,0.1342,0.151,0.1606,0.1745,0.1815,0.1847,0.154,0.1234,0.0865,0.0345,0.0038,0.0015,-0.0067,-0.0026,-0.0019,-0.0014,0.001,-0.0071,-0.0072,-0.0073,-0.0074,0,0,0.0889,0.0985,0.1038,0.1224,0.1327,0.1486,0.1584,0.1719,0.1812,0.1882,0.1859,0.1801,0.1349,0.0965,0.0538,0.0236,0.0181,0.0171,0.0247,0.0353,0.0362,0.0065,0.0113,0,0,0,0,0]}],[{"header":{"parameterUnit":"m.s-1","parameterCategory":2,"la1":30.2991,"la2":30.254,"lo1":-89.0895,"lo2":-89.0444,"dy":0.0017,"dx":0.0017,"nx":28,"ny":28,"refTime":"2025-04-27T03:00:00:Z","depth":"4","parameterNumber":2,"parameterNumberName":"U-component_of_CURRENTS"},"data":[0,0,0,0,0,0,0,0,0,0,0,0,0,0,0,0,0,0,0,0,0,0,0,0,0,0,0,0,0,0,0,0,0,0,0,0,0,0,0,0,0,0,0,0,0,0,0,0,0,0,0,0,0,0,0,0,0,0,0.1986,0.1987,0,0.2055,0.2055,0.2056,0.2123,0.2124,0.2125,0.2126,0.2212,0.2214,0.2215,0,0,0,0,0,0,0,0,0,0,0,0,0,0.1911,0.1912,0.1986,0.1987,0.1988,0.2055,0.2055,0.2056,0.2123,0.2124,0.2125,0.2127,0.2212,0.2213,0.2215,0,0,0,0,0,0,0,0,0,0,0,0,0,0.1956,0.1912,0.1986,0.2031,0.2036,0.2055,0.2056,0.2056,0.2123,0.2124,0.2126,0.2127,0.2211,0.2213,0.2215,0.2196,0,0,0.2221,0.2222,0,0,0,0,0,0,0,0,0.1954,0.1959,0.2023,0.2028,0.2033,0.2084,0.2061,0.2105,0.2122,0.2088,0.2126,0.2128,0.2171,0.2176,0.2183,0.2201,0.2204,0.2222,0.2223,0.2224,0.2224,0,0,0,0,0,0,0,0.195,0.1956,0.2012,0.2024,0.203,0.2047,0.2055,0.2069,0.2119,0.2091,0.2096,0.2106,0.2174,0.2181,0.2186,0.2206,0.2222,0.2223,0.2225,0.2225,0.234,0.2342,0,0,0,0,0,0,0.1944,0.1953,0.2009,0.2014,0.1999,0.2047,0.2056,0.2064,0.2118,0.2128,0.2105,0.2109,0.2177,0.2183,0.2189,0.2284,0.2224,0.2226,0.2227,0.2338,0.234,0.2342,0,0,0,0,0,0,0.1942,0.1948,0.2007,0.1987,0.1996,0.2047,0.2056,0.2065,0.2115,0.2129,0.214,0.2151,0.2178,0.2186,0.2243,0.2284,0.2226,0.2228,0.2336,0.2339,0.2341,0.2402,0,0,0,0,0,0,0.1939,0.1947,0.1971,0.1986,0.1997,0.2045,0.2055,0.2065,0.2117,0.2125,0.2171,0.2178,0.218,0.224,0.2245,0.2286,0.223,0.2334,0.2337,0.234,0.2397,0.2406,0.2414,0,0,0,0,0,0.1936,0.1953,0.1971,0.1979,0.2021,0.2046,0.2054,0.2094,0.2118,0.2144,0.2182,0.2179,0.2265,0.2243,0.2248,0.2291,0.2332,0.2336,0.234,0.2394,0.2405,0.2414,0,0,0,0,0,0,0.1935,0.1962,0.1982,0.2009,0.2041,0.2059,0.2091,0.2115,0.2164,0.2187,0.2199,0.2208,0.2276,0.2273,0.2248,0.2335,0.23,0.2305,0.2339,0.2349,0.2357,0.2362,0.2231,0,0,0,0,0,0.1943,0.1968,0.1993,0.2021,0.2039,0.2073,0.2098,0.2127,0.2161,0.2187,0.2219,0.2255,0.2288,0.2313,0.2339,0.238,0.2381,0.2413,0.2421,0.2428,0.2437,0.2472,0.2484,0.2356,0.2356,0.2356,0,0,0.1952,0.1971,0.1988,0.2024,0.2053,0.2085,0.2093,0.2142,0.2182,0.2186,0.2262,0.2289,0.2308,0.2362,0.2391,0.237,0.2466,0.2433,0.2439,0.2444,0.2478,0.249,0.2501,0.2359,0.2358,0.2358,0,0,0.1965,0.1999,0.2021,0.205,0.2102,0.2122,0.2145,0.219,0.223,0.229,0.2311,0.2365,0.2411,0.2435,0.2449,0.2517,0.2511,0.2533,0.2576,0.2611,0.2622,0.2631,0.2649,0.2659,0.2533,0.2533,0.2533,0,0.1981,0.2007,0.2034,0.2064,0.2094,0.2142,0.2176,0.2217,0.2281,0.2316,0.2328,0.2424,0.2444,0.2505,0.2535,0.2537,0.2551,0.2535,0.2621,0.2631,0.2639,0.2655,0.2665,0.2537,0.2536,0.2536,0.2536,0,0.1998,0.2038,0.2056,0.2108,0.2144,0.2185,0.2236,0.2292,0.2345,0.2384,0.2475,0.2506,0.2561,0.2579,0.258,0.2657,0.2646,0.2629,0.2593,0.2656,0.2668,0.2678,0.2542,0.254,0.2539,0.2539,0,0,0.1982,0.2054,0.2067,0.2102,0.2175,0.2203,0.2276,0.2345,0.2409,0.2477,0.2549,0.2615,0.2648,0.2667,0.2684,0.2717,0.279,0.2708,0.2708,0.2719,0.2866,0.2681,0.2673,0.2793,0.2796,0.2797,0.285,0,0.1994,0.2047,0.2084,0.2155,0.2186,0.2254,0.2316,0.2392,0.2463,0.2548,0.2601,0.2682,0.2676,0.2723,0.2756,0.2791,0.282,0.2777,0.2809,0.281,0.2632,0.268,0.2804,0.2858,0.286,0.2861,0.2863,0,0.1991,0.203,0.209,0.218,0.2204,0.2262,0.2373,0.244,0.2558,0.2617,0.2701,0.2749,0.2832,0.281,0.2892,0.287,0.2878,0.2889,0.289,0.2701,0.2642,0.2783,0.288,0.2879,0.2878,0.2876,0.2875,0,0.1945,0.2034,0.2085,0.2116,0.2222,0.228,0.2353,0.247,0.2539,0.2679,0.2742,0.2834,0.2901,0.2932,0.296,0.2943,0.3028,0.2999,0.2835,0.2822,0.2947,0.2936,0.3046,0.3046,0.3046,0.3046,0.3045,0,0.1917,0.1967,0.208,0.2108,0.2191,0.2277,0.2382,0.247,0.2599,0.2675,0.2786,0.2841,0.2941,0.2992,0.2993,0.2939,0.3054,0.2848,0.2824,0.2971,0.2963,0.2954,0.2942,0.3048,0.3047,0.3047,0.3046,0,0.1852,0.1925,0.1996,0.2123,0.2171,0.2237,0.239,0.2455,0.2599,0.2699,0.275,0.2883,0.2941,0.3001,0.306,0.2965,0.2944,0.2895,0.3056,0.304,0.2707,0.2699,0.2709,0.2703,0.2698,0.2693,0.269,0,0.1816,0.1847,0.1993,0.2038,0.2105,0.2216,0.2282,0.2439,0.2502,0.2687,0.2713,0.2837,0.2896,0.2826,0.2906,0.2888,0.2851,0.2818,0.2748,0.2697,0.2674,0.2674,0.2672,0.2682,0.268,0.2679,0.2678,0,0.1747,0.1821,0.1878,0.1969,0.2052,0.2126,0.2237,0.2263,0.2429,0.2583,0.2605,0.2623,0.268,0.2702,0.2714,0.2695,0.2826,0.2763,0.2773,0.2707,0.2664,0.2646,0.2651,0.266,0.2662,0.2664,0.2665,0,0.1702,0.1722,0.1806,0.1871,0.1968,0.1994,0.207,0.2126,0.2203,0.2399,0.2398,0.2519,0.2652,0.2602,0.2609,0.2581,0.2533,0.2435,0.2461,0.2482,0.238,0.229,0.2152,0,0,0,0,0,0.1637,0.1638,0.1694,0.1745,0.1836,0.1892,0.2014,0.2088,0.2243,0.2199,0.229,0.2325,0.233,0.2396,0.2318,0.2509,0.2548,0.2407,0.245,0.256,0.2581,0.248,0,0,0,0,0,0,0.1587,0.1634,0.1645,0.1627,0.1643,0.1717,0.1788,0.1895,0.1878,0.2044,0.2061,0.2185,0.2231,0.2352,0.2275,0.2294,0.2271,0.2491,0.2485,0.2548,0.2567,0.2584,0.2487,0,0,0,0,0]},{"header":{"parameterUnit":"m.s-1","parameterCategory":2,"la1":30.2991,"la2":30.254,"lo1":-89.0895,"lo2":-89.0444,"dy":0.0017,"dx":0.0017,"nx":28,"ny":28,"refTime":"2025-04-27T03:00:00:Z","depth":"4","parameterNumber":3,"parameterNumberName":"V-component_of_CURRENTS"},"data":[0,0,0,0,0,0,0,0,0,0,0,0,0,0,0,0,0,0,0,0,0,0,0,0,0,0,0,0,0,0,0,0,0,0,0,0,0,0,0,0,0,0,0,0,0,0,0,0,0,0,0,0,0,0,0,0,0,0,0.0309,0.0309,0,0.0286,0.0286,0.0285,0.0273,0.0274,0.0274,0.0274,0.023,0.0229,0.0227,0,0,0,0,0,0,0,0,0,0,0,0,0,0.0293,0.0294,0.0309,0.0309,0.0308,0.0286,0.0285,0.0285,0.0273,0.0274,0.0274,0.0274,0.023,0.0229,0.0227,0,0,0,0,0,0,0,0,0,0,0,0,0,0.0287,0.0294,0.0309,0.0301,0.03,0.0286,0.0285,0.0285,0.0273,0.0274,0.0274,0.0274,0.0231,0.0229,0.0227,0.0212,0,0,0.0221,0.022,0,0,0,0,0,0,0,0,0.0287,0.0287,0.0302,0.0301,0.03,0.0284,0.0264,0.026,0.0273,0.0282,0.0274,0.0274,0.0247,0.0244,0.0237,0.021,0.0208,0.0221,0.022,0.0219,0.0219,0,0,0,0,0,0,0,0.0288,0.0288,0.0298,0.0302,0.0301,0.0282,0.0281,0.0263,0.0262,0.0281,0.0281,0.028,0.0246,0.0239,0.0236,0.0207,0.0221,0.0219,0.0218,0.0218,0.0176,0.0176,0,0,0,0,0,0,0.0296,0.0289,0.0299,0.0298,0.0296,0.0282,0.0282,0.0288,0.0263,0.026,0.028,0.028,0.0242,0.0238,0.0235,0.0237,0.0219,0.0217,0.0216,0.0176,0.0176,0.0176,0,0,0,0,0,0,0.0296,0.0297,0.03,0.0293,0.0292,0.0283,0.029,0.0287,0.0289,0.0263,0.0259,0.0285,0.0242,0.0237,0.0228,0.0234,0.0217,0.0215,0.0176,0.0176,0.0176,0.0228,0,0,0,0,0,0,0.0296,0.0298,0.0306,0.0294,0.0293,0.03,0.0289,0.0287,0.0288,0.0288,0.0265,0.0261,0.0242,0.0231,0.0226,0.0231,0.0213,0.0175,0.0176,0.0176,0.0226,0.023,0.0233,0,0,0,0,0,0.0295,0.0306,0.0307,0.0308,0.0306,0.0301,0.0299,0.029,0.0289,0.0292,0.0278,0.0262,0.0227,0.0229,0.0224,0.0229,0.0175,0.0176,0.0176,0.0225,0.0229,0.0233,0,0,0,0,0,0,0.03,0.0306,0.0307,0.0318,0.0315,0.03,0.0302,0.0297,0.0288,0.0291,0.0264,0.0259,0.0252,0.0232,0.0235,0.0215,0.0198,0.0197,0.0237,0.0241,0.0244,0.0259,0.0212,0,0,0,0,0,0.0307,0.032,0.0317,0.0326,0.0327,0.0316,0.0314,0.0312,0.0302,0.0298,0.0282,0.0263,0.0245,0.0238,0.0219,0.021,0.0184,0.0208,0.0211,0.0214,0.0222,0.0186,0.0187,0.0176,0.0176,0.0176,0,0,0.031,0.0316,0.0322,0.0328,0.0324,0.0333,0.0316,0.032,0.0328,0.0294,0.0298,0.0275,0.0246,0.0237,0.0232,0.0223,0.0202,0.0214,0.0218,0.0224,0.0186,0.0187,0.0188,0.0176,0.0176,0.0176,0,0,0.0323,0.033,0.0346,0.0348,0.0353,0.0349,0.0354,0.0347,0.0345,0.0344,0.0321,0.0305,0.028,0.0261,0.0247,0.0256,0.0221,0.0248,0.0278,0.0243,0.0244,0.0245,0.0211,0.0208,0.025,0.025,0.025,0,0.0326,0.0351,0.0347,0.0363,0.0372,0.0361,0.038,0.0374,0.0365,0.0366,0.0354,0.0316,0.0292,0.0278,0.0282,0.0265,0.0239,0.0268,0.0249,0.0248,0.0248,0.0213,0.0209,0.0252,0.0252,0.0252,0.0252,0,0.0351,0.0373,0.0381,0.0404,0.041,0.0425,0.0422,0.0425,0.0421,0.0414,0.0402,0.0364,0.0344,0.0328,0.031,0.0295,0.0276,0.0258,0.0242,0.0252,0.0215,0.021,0.0256,0.0255,0.0254,0.0254,0,0,0.0355,0.0394,0.0399,0.0423,0.0438,0.0448,0.0461,0.0471,0.0489,0.0461,0.047,0.043,0.0411,0.0393,0.036,0.0328,0.03,0.0298,0.0295,0.0272,0.0223,0.0203,0.0195,0.0278,0.0278,0.0278,0.0198,0,0.0379,0.0427,0.0437,0.0481,0.0507,0.0506,0.0523,0.0529,0.0528,0.0531,0.0484,0.048,0.0435,0.0431,0.039,0.0327,0.0289,0.0323,0.0211,0.0207,0.0194,0.0189,0.0276,0.0194,0.0193,0.0192,0.0191,0,0.0404,0.0438,0.049,0.0537,0.0547,0.0572,0.0607,0.0622,0.0618,0.0615,0.0593,0.0559,0.0513,0.0473,0.0363,0.0387,0.0314,0.0255,0.025,0.0212,0.0178,0.018,0.0181,0.0182,0.0183,0.0183,0.0184,0,0.0421,0.0474,0.0523,0.0539,0.0585,0.0611,0.0637,0.0653,0.0682,0.0675,0.0689,0.0621,0.0598,0.0494,0.0372,0.037,0.0243,0.0223,0.013,0.0127,0.0147,0.0148,0.0141,0.0141,0.0142,0.0142,0.0142,0,0.0446,0.0486,0.0542,0.057,0.0636,0.0652,0.072,0.073,0.076,0.0799,0.0742,0.0744,0.0603,0.0514,0.0392,0.0246,0.0254,0.0136,0.0106,0.017,0.0174,0.0143,0.0145,0.0139,0.0139,0.014,0.0141,0,0.0459,0.0493,0.0556,0.0621,0.065,0.07,0.0789,0.0835,0.0852,0.0899,0.0901,0.0839,0.0722,0.0567,0.0396,0.0283,0.0138,0.0082,0.0166,0.0142,0.004,0.0045,-0.0024,-0.0026,-0.0027,-0.0028,-0.0029,0,0.047,0.0505,0.0599,0.065,0.0689,0.0771,0.0833,0.088,0.0935,0.0954,0.0976,0.0887,0.082,0.0567,0.0395,0.0152,0.0113,0.0031,0.003,0.0046,0.0023,0.003,0.0036,-0.0031,-0.0031,-0.0031,-0.0031,0,0.0491,0.0528,0.0584,0.0693,0.0772,0.0863,0.0954,0.0997,0.1046,0.106,0.1038,0.0909,0.0774,0.0572,0.0381,0.0206,0.008,0.0018,0.0019,0.0018,0.0037,0.0018,0.0025,-0.0036,-0.0035,-0.0035,-0.0034,0,0.0509,0.0551,0.0632,0.0728,0.083,0.0925,0.0973,0.1035,0.1083,0.1097,0.1085,0.0939,0.0859,0.06,0.0426,0.0248,0.0199,0.0131,0.0125,0.0127,0.0188,0.0236,0.02,0,0,0,0,0,0.0523,0.0573,0.0662,0.0767,0.0871,0.0935,0.104,0.108,0.1123,0.1114,0.1103,0.0976,0.0722,0.0622,0.0441,0.0389,0.0159,0.0169,0.0075,-0.0058,-0.0053,-0.0011,0,0,0,0,0,0,0.0532,0.0611,0.0656,0.0784,0.0861,0.0979,0.1048,0.1081,0.1083,0.1093,0.097,0.0913,0.0675,0.0822,0.0431,0.038,0.029,0.0058,0.0054,-0.0061,-0.0056,-0.0053,-0.0007,0,0,0,0,0]}]]